Retour au catalogue

TITAN 3C TRANSTAGE R/B

ActifMEO
NORAD 2222·ROCKET BODY·🇺🇸 United States

Lancé Jun 16, 1966 depuis Cape Canaveral Space Force Station

Loading…

Prochains Passages (prochaines 24 heures)

TLE

FraisSource: Space-Track

Époque: Sep 14, 2026, 10:47 UTC

1 02222U 66053J   26257.44945794 -.00000233  00000-0  00000-0 0  9995
2 02222   8.5843  47.0074 0166059 173.3314  19.1336  1.06722577131330

Suivez TITAN 3C TRANSTAGE R/B en temps réel avec AllMySat

Download on the App Store